Year,Month,Day,Hour,Minute,Value (Times are PST for windgust in km/hr)
2014,10,22,00,00,35.40
2014,10,22,00,01,33.80
2014,10,22,00,02,41.80
2014,10,22,00,03,38.60
2014,10,22,00,04,48.30
2014,10,22,00,05,37.00
2014,10,22,00,06,35.40
2014,10,22,00,07,41.80
2014,10,22,00,08,40.20
2014,10,22,00,09,38.60
2014,10,22,00,10,46.70
2014,10,22,00,11,33.80
2014,10,22,00,12,37.00
2014,10,22,00,13,40.20
2014,10,22,00,14,30.60
2014,10,22,00,15,41.80
2014,10,22,00,16,40.20
2014,10,22,00,17,41.80
2014,10,22,00,18,35.40
2014,10,22,00,19,35.40
2014,10,22,00,20,22.50
2014,10,22,00,21,35.40
2014,10,22,00,22,41.80
2014,10,22,00,23,25.70
2014,10,22,00,24,29.00
2014,10,22,00,25,27.40
2014,10,22,00,26,41.80
2014,10,22,00,27,30.60
2014,10,22,00,28,43.50
2014,10,22,00,29,35.40
2014,10,22,00,30,30.60
2014,10,22,00,31,37.00
2014,10,22,00,32,29.00
2014,10,22,00,33,37.00
2014,10,22,00,34,38.60
2014,10,22,00,35,33.80
2014,10,22,00,36,37.00
2014,10,22,00,37,33.80
2014,10,22,00,38,32.20
2014,10,22,00,39,41.80
2014,10,22,00,40,35.40
2014,10,22,00,41,53.10
2014,10,22,00,42,41.80
2014,10,22,00,43,45.10
2014,10,22,00,44,29.00
2014,10,22,00,45,40.20
2014,10,22,00,46,53.10
2014,10,22,00,47,41.80
2014,10,22,00,48,53.10
2014,10,22,00,49,32.20
2014,10,22,00,50,46.70
2014,10,22,00,51,32.20
2014,10,22,00,52,33.80
2014,10,22,00,53,48.30
2014,10,22,00,54,40.20
2014,10,22,00,55,49.90
2014,10,22,00,56,35.40
2014,10,22,00,57,41.80
2014,10,22,00,58,33.80
2014,10,22,00,59,30.60
2014,10,22,01,00,40.20
2014,10,22,01,01,40.20
2014,10,22,01,02,33.80
2014,10,22,01,03,33.80
2014,10,22,01,04,37.00
2014,10,22,01,05,29.00
2014,10,22,01,06,38.60
2014,10,22,01,07,35.40
2014,10,22,01,08,46.70
2014,10,22,01,09,33.80
2014,10,22,01,10,32.20
2014,10,22,01,11,29.00
2014,10,22,01,12,43.50
2014,10,22,01,13,38.60
2014,10,22,01,14,40.20
2014,10,22,01,15,29.00
2014,10,22,01,16,38.60
2014,10,22,01,17,41.80
2014,10,22,01,18,29.00
2014,10,22,01,19,40.20
2014,10,22,01,20,41.80
2014,10,22,01,21,53.10
2014,10,22,01,22,27.40
2014,10,22,01,23,30.60
2014,10,22,01,24,41.80
2014,10,22,01,25,35.40
2014,10,22,01,26,43.50
2014,10,22,01,27,37.00
2014,10,22,01,28,37.00
2014,10,22,01,29,41.80
2014,10,22,01,30,38.60
2014,10,22,01,31,43.50
2014,10,22,01,32,46.70
2014,10,22,01,33,27.40
2014,10,22,01,34,37.00
2014,10,22,01,35,35.40
2014,10,22,01,36,29.00
2014,10,22,01,37,32.20
2014,10,22,01,38,33.80
2014,10,22,01,39,37.00
2014,10,22,01,40,45.10
2014,10,22,01,41,27.40
2014,10,22,01,42,25.70
2014,10,22,01,43,37.00
2014,10,22,01,44,37.00
2014,10,22,01,45,33.80
2014,10,22,01,46,32.20
2014,10,22,01,47,32.20
2014,10,22,01,48,41.80
2014,10,22,01,49,27.40
2014,10,22,01,50,24.20
2014,10,22,01,51,30.60
2014,10,22,01,52,37.00
2014,10,22,01,53,29.00
2014,10,22,01,54,38.60
2014,10,22,01,55,25.70
2014,10,22,01,56,38.60
2014,10,22,01,57,27.40
2014,10,22,01,58,24.20
2014,10,22,01,59,25.70
2014,10,22,02,00,22.50
2014,10,22,02,01,29.00
2014,10,22,02,02,24.20
2014,10,22,02,03,32.20
2014,10,22,02,04,37.00
2014,10,22,02,05,32.20
2014,10,22,02,06,25.70
2014,10,22,02,07,29.00
2014,10,22,02,08,27.40
2014,10,22,02,09,33.80
2014,10,22,02,10,35.40
2014,10,22,02,11,40.20
2014,10,22,02,12,27.40
2014,10,22,02,13,27.40
2014,10,22,02,14,29.00
2014,10,22,02,15,25.70
2014,10,22,02,16,38.60
2014,10,22,02,17,30.60
2014,10,22,02,18,41.80
2014,10,22,02,19,29.00
2014,10,22,02,20,27.40
2014,10,22,02,21,30.60
2014,10,22,02,22,24.20
2014,10,22,02,23,30.60
2014,10,22,02,24,29.00
2014,10,22,02,25,37.00
2014,10,22,02,26,22.50
2014,10,22,02,27,27.40
2014,10,22,02,28,25.70
2014,10,22,02,29,22.50
2014,10,22,02,30,25.70
2014,10,22,02,31,27.40
2014,10,22,02,32,33.80
2014,10,22,02,33,33.80
2014,10,22,02,34,22.50
2014,10,22,02,35,19.30
2014,10,22,02,36,35.40
2014,10,22,02,37,27.40
2014,10,22,02,38,24.20
2014,10,22,02,39,25.70
2014,10,22,02,40,20.90
2014,10,22,02,41,22.50
2014,10,22,02,42,27.40
2014,10,22,02,43,37.00
2014,10,22,02,44,24.20
2014,10,22,02,45,24.20
2014,10,22,02,46,19.30
2014,10,22,02,47,30.60
2014,10,22,02,48,33.80
2014,10,22,02,49,32.20
2014,10,22,02,50,25.70
2014,10,22,02,51,24.20
2014,10,22,02,52,35.40
2014,10,22,02,53,30.60
2014,10,22,02,54,22.50
2014,10,22,02,55,25.70
2014,10,22,02,56,30.60
2014,10,22,02,57,33.80
2014,10,22,02,58,25.70
2014,10,22,02,59,25.70
2014,10,22,03,00,32.20
2014,10,22,03,01,30.60
2014,10,22,03,02,40.20
2014,10,22,03,03,27.40
2014,10,22,03,04,25.70
2014,10,22,03,05,30.60
2014,10,22,03,06,35.40
2014,10,22,03,07,25.70
2014,10,22,03,08,27.40
2014,10,22,03,09,35.40
2014,10,22,03,10,19.30
2014,10,22,03,11,20.90
2014,10,22,03,12,27.40
2014,10,22,03,13,25.70
2014,10,22,03,14,38.60
2014,10,22,03,15,32.20
2014,10,22,03,16,32.20
2014,10,22,03,17,25.70
2014,10,22,03,18,32.20
2014,10,22,03,19,27.40
2014,10,22,03,20,20.90
2014,10,22,03,21,35.40
2014,10,22,03,22,20.90
2014,10,22,03,23,16.10
2014,10,22,03,24,27.40
2014,10,22,03,25,17.70
2014,10,22,03,26,24.20
2014,10,22,03,27,16.10
2014,10,22,03,28,19.30
2014,10,22,03,29,24.20
2014,10,22,03,30,17.70
2014,10,22,03,31,25.70
2014,10,22,03,32,27.40
2014,10,22,03,33,24.20
2014,10,22,03,34,37.00
2014,10,22,03,35,17.70
2014,10,22,03,36,22.50
2014,10,22,03,37,20.90
2014,10,22,03,38,30.60
2014,10,22,03,39,22.50
2014,10,22,03,40,17.70
2014,10,22,03,41,25.70
2014,10,22,03,42,20.90
2014,10,22,03,43,30.60
2014,10,22,03,44,22.50
2014,10,22,03,45,29.00
2014,10,22,03,46,20.90
2014,10,22,03,47,14.50
2014,10,22,03,48,16.10
2014,10,22,03,49,19.30
2014,10,22,03,50,16.10
2014,10,22,03,51,14.50
2014,10,22,03,52,16.10
2014,10,22,03,53,16.10
2014,10,22,03,54,11.30
2014,10,22,03,55,6.40
2014,10,22,03,56,11.30
2014,10,22,03,57,4.80
2014,10,22,03,58,6.40
2014,10,22,03,59,6.40
2014,10,22,04,00,3.20
2014,10,22,04,01,3.20
2014,10,22,04,02,3.20
2014,10,22,04,03,3.20
2014,10,22,04,04,4.80
2014,10,22,04,05,3.20
2014,10,22,04,06,3.20
2014,10,22,04,07,4.80
2014,10,22,04,08,4.80
2014,10,22,04,09,9.60
2014,10,22,04,10,4.80
2014,10,22,04,11,6.40
2014,10,22,04,12,11.30
2014,10,22,04,13,8.10
2014,10,22,04,14,8.10
2014,10,22,04,15,8.10
2014,10,22,04,16,6.40
2014,10,22,04,17,4.80
2014,10,22,04,18,1.60
2014,10,22,04,19,3.20
2014,10,22,04,20,1.60
2014,10,22,04,21,3.20
2014,10,22,04,22,1.60
2014,10,22,04,23,3.20
2014,10,22,04,24,4.80
2014,10,22,04,25,6.40
2014,10,22,04,26,6.40
2014,10,22,04,27,4.80
2014,10,22,04,28,8.10
2014,10,22,04,29,4.80
2014,10,22,04,30,1.60
2014,10,22,04,31,6.40
2014,10,22,04,32,12.90
2014,10,22,04,33,14.50
2014,10,22,04,34,14.50
2014,10,22,04,35,14.50
2014,10,22,04,36,16.10
2014,10,22,04,37,19.30
2014,10,22,04,38,19.30
2014,10,22,04,39,11.30
2014,10,22,04,40,8.10
2014,10,22,04,41,9.60
2014,10,22,04,42,14.50
2014,10,22,04,43,8.10
2014,10,22,04,44,12.90
2014,10,22,04,45,8.10
2014,10,22,04,46,9.60
2014,10,22,04,47,16.10
2014,10,22,04,48,14.50
2014,10,22,04,49,12.90
2014,10,22,04,50,14.50
2014,10,22,04,51,17.70
2014,10,22,04,52,19.30
2014,10,22,04,53,8.10
2014,10,22,04,54,14.50
2014,10,22,04,55,14.50
2014,10,22,04,56,11.30
2014,10,22,04,57,17.70
2014,10,22,04,58,14.50
2014,10,22,04,59,17.70
2014,10,22,05,00,14.50
2014,10,22,05,01,24.20
2014,10,22,05,02,20.90
2014,10,22,05,03,14.50
2014,10,22,05,04,12.90
2014,10,22,05,05,20.90
2014,10,22,05,06,14.50
2014,10,22,05,07,6.40
2014,10,22,05,08,9.60
2014,10,22,05,09,9.60
2014,10,22,05,10,9.60
2014,10,22,05,11,6.40
2014,10,22,05,12,9.60
2014,10,22,05,13,14.50
2014,10,22,05,14,9.60
2014,10,22,05,15,9.60
2014,10,22,05,16,16.10
2014,10,22,05,17,11.30
2014,10,22,05,18,17.70
2014,10,22,05,19,9.60
2014,10,22,05,20,16.10
2014,10,22,05,21,9.60
2014,10,22,05,22,16.10
2014,10,22,05,23,12.90
2014,10,22,05,24,14.50
2014,10,22,05,25,14.50
2014,10,22,05,26,9.60
2014,10,22,05,27,14.50
2014,10,22,05,28,12.90
2014,10,22,05,29,11.30
2014,10,22,05,30,9.60
2014,10,22,05,31,11.30
2014,10,22,05,32,9.60
2014,10,22,05,33,16.10
2014,10,22,05,34,20.90
2014,10,22,05,35,19.30
2014,10,22,05,36,20.90
2014,10,22,05,37,17.70
2014,10,22,05,38,16.10
2014,10,22,05,39,12.90
2014,10,22,05,40,12.90
2014,10,22,05,41,11.30
2014,10,22,05,42,16.10
2014,10,22,05,43,12.90
2014,10,22,05,44,17.70
2014,10,22,05,45,8.10
2014,10,22,05,46,11.30
2014,10,22,05,47,8.10
2014,10,22,05,48,4.80
2014,10,22,05,49,6.40
2014,10,22,05,50,11.30
2014,10,22,05,51,11.30
2014,10,22,05,52,11.30
2014,10,22,05,53,8.10
2014,10,22,05,54,9.60
2014,10,22,05,55,6.40
2014,10,22,05,56,6.40
2014,10,22,05,57,4.80
2014,10,22,05,58,6.40
2014,10,22,05,59,4.80
2014,10,22,06,00,6.40
2014,10,22,06,01,6.40
2014,10,22,06,02,3.20
2014,10,22,06,03,4.80
2014,10,22,06,04,4.80
2014,10,22,06,05,3.20
2014,10,22,06,06,4.80
2014,10,22,06,07,4.80
2014,10,22,06,08,8.10
2014,10,22,06,09,4.80
2014,10,22,06,10,4.80
2014,10,22,06,11,3.20
2014,10,22,06,12,1.60
2014,10,22,06,13,4.80
2014,10,22,06,14,3.20
2014,10,22,06,15,4.80
2014,10,22,06,16,1.60
2014,10,22,06,17,3.20
2014,10,22,06,18,4.80
2014,10,22,06,19,3.20
2014,10,22,06,20,4.80
2014,10,22,06,21,4.80
2014,10,22,06,22,4.80
2014,10,22,06,23,4.80
2014,10,22,06,24,3.20
2014,10,22,06,25,1.60
2014,10,22,06,26,4.80
2014,10,22,06,27,3.20
2014,10,22,06,28,3.20
2014,10,22,06,29,3.20
2014,10,22,06,30,3.20
2014,10,22,06,31,1.60
2014,10,22,06,34,1.60
2014,10,22,06,35,3.20
2014,10,22,06,36,3.20
2014,10,22,06,37,1.60
2014,10,22,06,38,1.60
2014,10,22,06,43,1.60
2014,10,22,06,44,1.60
2014,10,22,06,45,1.60
2014,10,22,06,46,1.60
2014,10,22,06,47,3.20
2014,10,22,06,48,1.60
2014,10,22,06,49,3.20
2014,10,22,06,50,3.20
2014,10,22,06,51,3.20
2014,10,22,06,52,3.20
2014,10,22,06,53,3.20
2014,10,22,06,54,1.60
2014,10,22,06,55,1.60
2014,10,22,06,56,1.60
2014,10,22,06,57,1.60
2014,10,22,06,59,1.60
2014,10,22,07,00,3.20
2014,10,22,07,01,3.20
2014,10,22,07,02,4.80
2014,10,22,07,03,3.20
2014,10,22,07,04,3.20
2014,10,22,07,05,4.80
2014,10,22,07,06,3.20
2014,10,22,07,07,3.20
2014,10,22,07,08,3.20
2014,10,22,07,09,3.20
2014,10,22,07,10,3.20
2014,10,22,07,11,3.20
2014,10,22,07,12,3.20
2014,10,22,07,13,3.20
2014,10,22,07,14,4.80
2014,10,22,07,15,3.20
2014,10,22,07,16,3.20
2014,10,22,07,17,4.80
2014,10,22,07,18,3.20
2014,10,22,07,19,3.20
2014,10,22,07,20,1.60
2014,10,22,07,21,1.60
2014,10,22,07,23,1.60
2014,10,22,07,24,1.60
2014,10,22,07,25,4.80
2014,10,22,07,26,3.20
2014,10,22,07,27,1.60
2014,10,22,07,29,1.60
2014,10,22,07,30,1.60
2014,10,22,07,32,1.60
2014,10,22,07,33,3.20
2014,10,22,07,34,3.20
2014,10,22,07,35,1.60
2014,10,22,07,38,1.60
2014,10,22,07,39,1.60
2014,10,22,07,41,3.20
2014,10,22,07,42,3.20
2014,10,22,07,43,1.60
2014,10,22,07,45,1.60
2014,10,22,07,46,1.60
2014,10,22,07,47,1.60
2014,10,22,07,48,1.60
2014,10,22,07,51,4.80
2014,10,22,07,52,4.80
2014,10,22,07,53,6.40
2014,10,22,07,54,4.80
2014,10,22,07,55,4.80
2014,10,22,07,56,4.80
2014,10,22,07,57,1.60
2014,10,22,07,58,4.80
2014,10,22,07,59,3.20
2014,10,22,08,00,3.20
2014,10,22,08,01,3.20
2014,10,22,08,02,3.20
2014,10,22,08,03,3.20
2014,10,22,08,04,3.20
2014,10,22,08,05,3.20
2014,10,22,08,06,3.20
2014,10,22,08,07,1.60
2014,10,22,08,08,1.60
2014,10,22,08,15,1.60
2014,10,22,08,19,1.60
2014,10,22,08,20,1.60
2014,10,22,08,25,1.60
2014,10,22,08,26,1.60
2014,10,22,08,27,1.60
2014,10,22,08,28,1.60
2014,10,22,08,29,1.60
2014,10,22,08,30,1.60
2014,10,22,08,35,1.60
2014,10,22,08,36,3.20
2014,10,22,08,37,3.20
2014,10,22,08,38,1.60
2014,10,22,08,39,1.60
2014,10,22,08,42,1.60
2014,10,22,08,43,1.60
2014,10,22,08,45,1.60
2014,10,22,08,46,1.60
2014,10,22,08,52,1.60
2014,10,22,09,07,1.60
2014,10,22,09,08,1.60
2014,10,22,09,13,1.60
2014,10,22,09,14,1.60
2014,10,22,09,16,1.60
2014,10,22,09,17,1.60
2014,10,22,09,20,1.60
2014,10,22,09,24,3.20
2014,10,22,09,25,1.60
2014,10,22,09,26,1.60
2014,10,22,09,27,1.60
2014,10,22,09,32,1.60
2014,10,22,09,34,3.20
2014,10,22,09,35,3.20
2014,10,22,09,37,1.60
2014,10,22,09,38,1.60
2014,10,22,09,39,1.60
2014,10,22,09,40,1.60
2014,10,22,09,41,1.60
2014,10,22,09,42,3.20
2014,10,22,09,43,3.20
2014,10,22,09,44,3.20
2014,10,22,09,45,1.60
2014,10,22,09,46,1.60
2014,10,22,09,47,3.20
2014,10,22,09,48,1.60
2014,10,22,09,49,3.20
2014,10,22,09,50,3.20
2014,10,22,09,51,3.20
2014,10,22,09,52,3.20
2014,10,22,09,53,1.60
2014,10,22,09,54,3.20
2014,10,22,09,55,3.20
2014,10,22,09,56,1.60
2014,10,22,09,57,3.20
2014,10,22,09,58,3.20
2014,10,22,09,59,3.20
2014,10,22,10,00,1.60
2014,10,22,10,01,3.20
2014,10,22,10,02,4.80
2014,10,22,10,03,1.60
2014,10,22,10,04,3.20
2014,10,22,10,05,3.20
2014,10,22,10,06,3.20
2014,10,22,10,07,3.20
2014,10,22,10,08,6.40
2014,10,22,10,09,3.20
2014,10,22,10,10,4.80
2014,10,22,10,11,3.20
2014,10,22,10,12,4.80
2014,10,22,10,13,4.80
2014,10,22,10,14,1.60
2014,10,22,10,15,1.60
2014,10,22,10,16,6.40
2014,10,22,10,17,4.80
2014,10,22,10,18,1.60
2014,10,22,10,19,1.60
2014,10,22,10,20,3.20
2014,10,22,10,21,8.10
2014,10,22,10,22,6.40
2014,10,22,10,23,6.40
2014,10,22,10,24,4.80
2014,10,22,10,25,6.40
2014,10,22,10,26,6.40
2014,10,22,10,27,4.80
2014,10,22,10,28,9.60
2014,10,22,10,29,6.40
2014,10,22,10,30,4.80
2014,10,22,10,31,3.20
2014,10,22,10,32,4.80
2014,10,22,10,33,1.60
2014,10,22,10,34,1.60
2014,10,22,10,35,3.20
2014,10,22,10,36,4.80
2014,10,22,10,37,6.40
2014,10,22,10,38,6.40
2014,10,22,10,39,4.80
2014,10,22,10,40,3.20
2014,10,22,10,41,4.80
2014,10,22,10,42,3.20
2014,10,22,10,43,4.80
2014,10,22,10,44,3.20
2014,10,22,10,45,4.80
2014,10,22,10,46,3.20
2014,10,22,10,48,3.20
2014,10,22,10,49,1.60
2014,10,22,10,50,3.20
2014,10,22,10,51,3.20
2014,10,22,10,52,3.20
2014,10,22,10,53,3.20
2014,10,22,10,54,4.80
2014,10,22,10,55,3.20
2014,10,22,10,56,3.20
2014,10,22,10,57,3.20
2014,10,22,10,58,3.20
2014,10,22,10,59,1.60
2014,10,22,11,00,1.60
2014,10,22,11,01,1.60
2014,10,22,11,02,1.60
2014,10,22,11,03,1.60
2014,10,22,11,04,3.20
2014,10,22,11,05,1.60
2014,10,22,11,06,4.80
2014,10,22,11,07,3.20
2014,10,22,11,08,3.20
2014,10,22,11,09,1.60
2014,10,22,11,10,4.80
2014,10,22,11,11,4.80
2014,10,22,11,12,4.80
2014,10,22,11,13,3.20
2014,10,22,11,14,4.80
2014,10,22,11,15,3.20
2014,10,22,11,16,1.60
2014,10,22,11,17,3.20
2014,10,22,11,18,3.20
2014,10,22,11,19,3.20
2014,10,22,11,20,1.60
2014,10,22,11,21,4.80
2014,10,22,11,22,4.80
2014,10,22,11,23,4.80
2014,10,22,11,24,4.80
2014,10,22,11,25,1.60
2014,10,22,11,26,3.20
2014,10,22,11,27,4.80
2014,10,22,11,28,3.20
2014,10,22,11,29,3.20
2014,10,22,11,30,3.20
2014,10,22,11,31,3.20
2014,10,22,11,32,1.60
2014,10,22,11,33,1.60
2014,10,22,11,34,1.60
2014,10,22,11,35,3.20
2014,10,22,11,36,3.20
2014,10,22,11,37,3.20
2014,10,22,11,38,3.20
2014,10,22,11,39,1.60
2014,10,22,11,40,1.60
2014,10,22,11,41,1.60
2014,10,22,11,42,4.80
2014,10,22,11,43,3.20
2014,10,22,11,44,4.80
2014,10,22,11,45,1.60
2014,10,22,11,46,3.20
2014,10,22,11,47,4.80
2014,10,22,11,48,3.20
2014,10,22,11,49,3.20
2014,10,22,11,50,4.80
2014,10,22,11,51,4.80
2014,10,22,11,52,4.80
2014,10,22,11,53,3.20
2014,10,22,11,54,4.80
2014,10,22,11,55,3.20
2014,10,22,11,56,3.20
2014,10,22,11,57,3.20
2014,10,22,11,58,4.80
2014,10,22,11,59,1.60
2014,10,22,12,00,3.20
2014,10,22,12,01,3.20
2014,10,22,12,02,1.60
2014,10,22,12,03,1.60
2014,10,22,12,04,3.20
2014,10,22,12,05,4.80
2014,10,22,12,06,4.80
2014,10,22,12,07,6.40
2014,10,22,12,08,6.40
2014,10,22,12,09,4.80
2014,10,22,12,10,3.20
2014,10,22,12,11,1.60
2014,10,22,12,12,4.80
2014,10,22,12,13,3.20
2014,10,22,12,14,1.60
2014,10,22,12,15,3.20
2014,10,22,12,16,3.20
2014,10,22,12,17,4.80
2014,10,22,12,18,4.80
2014,10,22,12,19,3.20
2014,10,22,12,20,3.20
2014,10,22,12,21,4.80
2014,10,22,12,22,4.80
2014,10,22,12,23,4.80
2014,10,22,12,24,1.60
2014,10,22,12,26,1.60
2014,10,22,12,27,1.60
2014,10,22,12,28,3.20
2014,10,22,12,29,1.60
2014,10,22,12,30,1.60
2014,10,22,12,31,4.80
2014,10,22,12,32,3.20
2014,10,22,12,33,4.80
2014,10,22,12,34,6.40
2014,10,22,12,35,4.80
2014,10,22,12,36,3.20
2014,10,22,12,37,3.20
2014,10,22,12,38,3.20
2014,10,22,12,39,3.20
2014,10,22,12,40,3.20
2014,10,22,12,47,1.60
2014,10,22,12,56,1.60
2014,10,22,12,57,3.20
2014,10,22,12,58,3.20
2014,10,22,12,59,3.20
2014,10,22,13,00,1.60
2014,10,22,14,11,3.20
2014,10,22,14,12,3.20
2014,10,22,14,13,3.20
2014,10,22,14,14,3.20
2014,10,22,14,15,1.60
2014,10,22,14,16,1.60
2014,10,22,14,17,1.60
2014,10,22,14,18,1.60
2014,10,22,14,21,1.60
2014,10,22,14,22,3.20
2014,10,22,14,23,3.20
2014,10,22,14,24,1.60
2014,10,22,14,25,3.20
2014,10,22,14,26,1.60
2014,10,22,14,27,1.60
2014,10,22,14,28,3.20
2014,10,22,14,29,6.40
2014,10,22,14,30,4.80
2014,10,22,14,31,4.80
2014,10,22,14,32,4.80
2014,10,22,14,33,3.20
2014,10,22,14,34,3.20
2014,10,22,14,35,6.40
2014,10,22,14,36,3.20
2014,10,22,14,37,1.60
2014,10,22,14,38,1.60
2014,10,22,14,39,1.60
2014,10,22,14,40,1.60
2014,10,22,14,41,1.60
2014,10,22,14,42,1.60
2014,10,22,14,43,1.60
2014,10,22,14,44,1.60
2014,10,22,14,47,1.60
2014,10,22,14,48,1.60
2014,10,22,14,50,3.20
2014,10,22,14,51,3.20
2014,10,22,14,52,1.60
2014,10,22,14,53,1.60
2014,10,22,14,54,4.80
2014,10,22,14,55,3.20
2014,10,22,14,56,1.60
2014,10,22,14,57,1.60
2014,10,22,14,58,1.60
2014,10,22,14,59,1.60
2014,10,22,15,00,1.60
2014,10,22,15,01,1.60
2014,10,22,15,02,1.60
2014,10,22,15,03,3.20
2014,10,22,15,04,1.60
2014,10,22,15,05,1.60
2014,10,22,15,06,1.60
2014,10,22,15,07,1.60
2014,10,22,15,08,1.60
2014,10,22,15,09,1.60
2014,10,22,15,10,3.20
2014,10,22,15,11,4.80
2014,10,22,15,12,3.20
2014,10,22,15,13,3.20
2014,10,22,15,14,3.20
2014,10,22,15,15,1.60
2014,10,22,15,16,1.60
2014,10,22,15,17,3.20
2014,10,22,15,18,6.40
2014,10,22,15,19,4.80
2014,10,22,15,20,1.60
2014,10,22,15,21,4.80
2014,10,22,15,22,4.80
2014,10,22,15,23,3.20
2014,10,22,15,24,3.20
2014,10,22,15,25,4.80
2014,10,22,15,27,3.20
2014,10,22,15,28,3.20
2014,10,22,15,29,3.20
2014,10,22,15,30,4.80
2014,10,22,15,31,3.20
2014,10,22,15,32,6.40
2014,10,22,15,33,4.80
2014,10,22,15,34,4.80
2014,10,22,15,35,4.80
2014,10,22,15,36,3.20
2014,10,22,15,37,4.80
2014,10,22,15,38,3.20
2014,10,22,15,39,12.90
2014,10,22,15,40,8.10
2014,10,22,15,41,4.80
2014,10,22,15,42,8.10
2014,10,22,15,43,8.10
2014,10,22,15,44,6.40
2014,10,22,15,45,6.40
2014,10,22,15,46,9.60
2014,10,22,15,47,11.30
2014,10,22,15,48,14.50
2014,10,22,15,49,16.10
2014,10,22,15,50,9.60
2014,10,22,15,51,9.60
2014,10,22,15,52,17.70
2014,10,22,15,53,22.50
2014,10,22,15,54,14.50
2014,10,22,15,55,4.80
2014,10,22,15,56,11.30
2014,10,22,15,57,16.10
2014,10,22,15,58,17.70
2014,10,22,15,59,8.10
2014,10,22,16,00,6.40
2014,10,22,16,01,6.40
2014,10,22,16,02,3.20
2014,10,22,16,03,8.10
2014,10,22,16,04,3.20
2014,10,22,16,05,3.20
2014,10,22,16,06,6.40
2014,10,22,16,07,8.10
2014,10,22,16,08,8.10
2014,10,22,16,09,4.80
2014,10,22,16,10,11.30
2014,10,22,16,11,9.60
2014,10,22,16,12,19.30
2014,10,22,16,13,14.50
2014,10,22,16,14,16.10
2014,10,22,16,15,14.50
2014,10,22,16,16,17.70
2014,10,22,16,17,8.10
2014,10,22,16,18,8.10
2014,10,22,16,19,8.10
2014,10,22,16,20,8.10
2014,10,22,16,21,16.10
2014,10,22,16,22,16.10
2014,10,22,16,23,9.60
2014,10,22,16,24,8.10
2014,10,22,16,25,6.40
2014,10,22,16,26,3.20
2014,10,22,16,27,3.20
2014,10,22,16,28,3.20
2014,10,22,16,29,3.20
2014,10,22,16,30,3.20
2014,10,22,16,31,6.40
2014,10,22,16,32,9.60
2014,10,22,16,33,6.40
2014,10,22,16,34,4.80
2014,10,22,16,35,6.40
2014,10,22,16,36,14.50
2014,10,22,16,37,6.40
2014,10,22,16,38,8.10
2014,10,22,16,39,8.10
2014,10,22,16,40,9.60
2014,10,22,16,41,6.40
2014,10,22,16,42,4.80
2014,10,22,16,43,6.40
2014,10,22,16,44,4.80
2014,10,22,16,45,6.40
2014,10,22,16,46,4.80
2014,10,22,16,47,1.60
2014,10,22,16,48,1.60
2014,10,22,16,49,1.60
2014,10,22,16,50,1.60
2014,10,22,16,51,3.20
2014,10,22,16,52,1.60
2014,10,22,16,53,3.20
2014,10,22,16,54,3.20
2014,10,22,16,55,1.60
2014,10,22,16,56,1.60
2014,10,22,16,57,3.20
2014,10,22,16,58,4.80
2014,10,22,16,59,3.20
2014,10,22,17,00,3.20
2014,10,22,17,01,3.20
2014,10,22,17,02,3.20
2014,10,22,17,03,1.60
2014,10,22,17,04,4.80
2014,10,22,17,05,3.20
2014,10,22,17,06,1.60
2014,10,22,17,07,1.60
2014,10,22,17,08,3.20
2014,10,22,17,09,1.60
2014,10,22,17,10,3.20
2014,10,22,17,11,3.20
2014,10,22,17,12,1.60
2014,10,22,17,13,3.20
2014,10,22,17,14,1.60
2014,10,22,17,16,3.20
2014,10,22,17,17,3.20
2014,10,22,17,18,1.60
2014,10,22,17,19,1.60
2014,10,22,17,20,1.60
2014,10,22,17,24,1.60
2014,10,22,17,25,3.20
2014,10,22,17,26,3.20
2014,10,22,17,27,1.60
2014,10,22,17,28,1.60
2014,10,22,17,29,1.60
2014,10,22,17,30,3.20
2014,10,22,17,31,4.80
2014,10,22,17,32,3.20
2014,10,22,17,33,3.20
2014,10,22,17,34,1.60
2014,10,22,17,35,3.20
2014,10,22,17,36,4.80
2014,10,22,17,37,3.20
2014,10,22,17,38,3.20
2014,10,22,17,39,3.20
2014,10,22,17,40,3.20
2014,10,22,17,41,1.60
2014,10,22,17,42,1.60
2014,10,22,17,46,1.60
2014,10,22,17,48,3.20
2014,10,22,17,49,3.20
2014,10,22,17,50,3.20
2014,10,22,17,51,1.60
2014,10,22,17,52,1.60
2014,10,22,17,53,3.20
2014,10,22,17,54,1.60
2014,10,22,17,55,3.20
2014,10,22,17,56,1.60
2014,10,22,17,57,3.20
2014,10,22,17,58,1.60
2014,10,22,17,59,1.60
2014,10,22,18,15,1.60
2014,10,22,18,16,1.60
2014,10,22,18,17,1.60
2014,10,22,18,20,3.20
2014,10,22,18,21,3.20
2014,10,22,18,22,3.20
2014,10,22,18,23,3.20
2014,10,22,18,24,1.60
2014,10,22,18,25,1.60
2014,10,22,18,26,1.60
2014,10,22,18,27,1.60
2014,10,22,18,28,1.60
2014,10,22,18,29,1.60
2014,10,22,18,31,1.60
2014,10,22,18,32,1.60
2014,10,22,18,33,1.60
2014,10,22,18,34,3.20
2014,10,22,18,35,1.60
2014,10,22,18,40,1.60
2014,10,22,18,41,1.60
2014,10,22,18,42,1.60
2014,10,22,18,44,1.60
2014,10,22,18,45,1.60
2014,10,22,18,46,3.20
2014,10,22,18,47,3.20
2014,10,22,18,48,1.60
2014,10,22,18,49,1.60
2014,10,22,18,50,1.60
2014,10,22,18,51,1.60
2014,10,22,18,52,1.60
2014,10,22,18,53,3.20
2014,10,22,18,54,1.60
2014,10,22,18,55,3.20
2014,10,22,18,56,4.80
2014,10,22,18,57,4.80
2014,10,22,18,58,3.20
2014,10,22,18,59,1.60
2014,10,22,19,00,3.20
2014,10,22,19,01,3.20
2014,10,22,19,02,3.20
2014,10,22,19,03,3.20
2014,10,22,19,04,3.20
2014,10,22,19,05,1.60
2014,10,22,19,06,3.20
2014,10,22,19,07,4.80
2014,10,22,19,08,4.80
2014,10,22,19,09,4.80
2014,10,22,19,10,3.20
2014,10,22,19,11,6.40
2014,10,22,19,12,4.80
2014,10,22,19,13,3.20
2014,10,22,19,14,1.60
2014,10,22,19,15,3.20
2014,10,22,19,16,3.20
2014,10,22,19,17,4.80
2014,10,22,19,18,3.20
2014,10,22,19,19,8.10
2014,10,22,19,20,4.80
2014,10,22,19,21,4.80
2014,10,22,19,22,3.20
2014,10,22,19,23,4.80
2014,10,22,19,24,11.30
2014,10,22,19,25,11.30
2014,10,22,19,26,6.40
2014,10,22,19,27,8.10
2014,10,22,19,28,9.60
2014,10,22,19,29,9.60
2014,10,22,19,30,9.60
2014,10,22,19,31,17.70
2014,10,22,19,32,12.90
2014,10,22,19,33,14.50
2014,10,22,19,34,17.70
2014,10,22,19,35,8.10
2014,10,22,19,36,6.40
2014,10,22,19,37,9.60
2014,10,22,19,38,9.60
2014,10,22,19,39,6.40
2014,10,22,19,40,9.60
2014,10,22,19,41,11.30
2014,10,22,19,42,4.80
2014,10,22,19,43,8.10
2014,10,22,19,44,8.10
2014,10,22,19,45,4.80
2014,10,22,19,46,8.10
2014,10,22,19,47,9.60
2014,10,22,19,48,6.40
2014,10,22,19,49,8.10
2014,10,22,19,50,8.10
2014,10,22,19,51,16.10
2014,10,22,19,52,9.60
2014,10,22,19,53,4.80
2014,10,22,19,54,6.40
2014,10,22,19,55,6.40
2014,10,22,19,56,6.40
2014,10,22,19,57,11.30
2014,10,22,19,58,6.40
2014,10,22,19,59,4.80
2014,10,22,20,00,4.80
2014,10,22,20,01,6.40
2014,10,22,20,02,6.40
2014,10,22,20,03,4.80
2014,10,22,20,04,8.10
2014,10,22,20,05,6.40
2014,10,22,20,06,4.80
2014,10,22,20,07,6.40
2014,10,22,20,08,6.40
2014,10,22,20,09,4.80
2014,10,22,20,10,3.20
2014,10,22,20,11,1.60
2014,10,22,20,12,4.80
2014,10,22,20,13,4.80
2014,10,22,20,14,4.80
2014,10,22,20,15,1.60
2014,10,22,20,16,3.20
2014,10,22,20,17,3.20
2014,10,22,20,18,3.20
2014,10,22,20,19,3.20
2014,10,22,20,20,4.80
2014,10,22,20,21,6.40
2014,10,22,20,22,6.40
2014,10,22,20,23,6.40
2014,10,22,20,24,4.80
2014,10,22,20,25,9.60
2014,10,22,20,26,6.40
2014,10,22,20,27,4.80
2014,10,22,20,28,9.60
2014,10,22,20,29,9.60
2014,10,22,20,30,6.40
2014,10,22,20,31,3.20
2014,10,22,20,32,4.80
2014,10,22,20,33,4.80
2014,10,22,20,34,6.40
2014,10,22,20,35,8.10
2014,10,22,20,36,8.10
2014,10,22,20,37,8.10
2014,10,22,20,38,14.50
2014,10,22,20,39,8.10
2014,10,22,20,40,9.60
2014,10,22,20,41,19.30
2014,10,22,20,42,11.30
2014,10,22,20,43,4.80
2014,10,22,20,44,3.20
2014,10,22,20,45,16.10
2014,10,22,20,46,4.80
2014,10,22,20,47,4.80
2014,10,22,20,48,6.40
2014,10,22,20,49,4.80
2014,10,22,20,50,6.40
2014,10,22,20,51,8.10
2014,10,22,20,52,6.40
2014,10,22,20,53,4.80
2014,10,22,20,54,6.40
2014,10,22,20,55,6.40
2014,10,22,20,56,3.20
2014,10,22,20,57,8.10
2014,10,22,20,58,8.10
2014,10,22,20,59,4.80
2014,10,22,21,00,4.80
2014,10,22,21,01,3.20
2014,10,22,21,02,4.80
2014,10,22,21,03,4.80
2014,10,22,21,04,3.20
2014,10,22,21,05,3.20